Location: Mahannah Oil Field
(37.4664°N, 96.6003°W)
Time: 15:44:11
(UTC+00:00)

Vanguard 2 Rocket - Pass Details

Date: 18 June 2021
Orbit: 554 x 3325 km, 32.9° (Epoch: 24 July)

Event Time Altitude Azimuth Distance (km) Brightness Sun altitude
Rises 06:23:57 0° 277° (W) 6,583 11.4 -29.1°
Reaches altitude 10° 06:29:00 10° 274° (W) 5,179 10.8 -29.1°
Maximum altitude 06:42:12 55° 202° (SSW) 1,896 8.0 -29.0°
Enters shadow 06:42:41 55° 192° (SSW) 1,866 8.0 -29.0°
